Oklahoma City, OK

3:42 AM CDT on May 26, 2017 (GMT -0500)
Will Rogers World

Weather History for KOKC - February, 2014

Change the Weather History Date:

Tuesday, February 25, 2014

  Actual Average Record
Temperature  
Mean Temperature 37 °F 46 °F  
Max Temperature 46 °F 57 °F 84 °F (1917)
Min Temperature 28 °F 36 °F 10 °F (1960)
Degree Days  
Heating Degree Days 28 19  
Month to date heating degree days 664 543  
Since 1 July heating degree days 3014 2696  
Moisture  
Dew Point 21 °F    
Average Humidity 56    
Maximum Humidity 76    
Minimum Humidity 36    
Precipitation  
Precipitation 0.00 in 0.07 in 0.80 in (2013)
Month to date precipitation 0.36 1.38  
Year to date precipitation 0.43 2.77  
Snow  
Snow 0.00 in 0.00 in 0.70 in (1952)
Month to date snowfall 4.0 1.3  
Since 1 July snowfall 8.7 6.6  
Snow Depth 0.00 in    
Sea Level Pressure  
Sea Level Pressure 30.21 in    
Wind  
Wind Speed 15 mph (NNE)    
Max Wind Speed 31 mph    
Max Gust Speed 39 mph    
Visibility 10 miles    
Events      
T = Trace of Precipitation, MM = Missing Value Source: NWS Daily Summary

Daily Weather History Graph

Daily Weather History Graph

Search for Another Location

Airport or City:

Trip Planner

Search our weather history database for the weather conditions in past years. The results will help you decide how hot, cold, wet, or windy it might be!

Date:

Astronomy

Feb. 25, 2014 Rise Set
Actual Time 7:05 AM CST 6:22 PM CST
Civil Twilight 6:39 AM CST 6:47 PM CST
Nautical Twilight 6:09 AM CST 7:17 PM CST
Astronomical Twilight 5:40 AM CST 7:46 PM CST
Moon 3:55 AM CST (2/25) 2:35 PM CST (2/25)
Length of Visible Light 12h 08m
Length of Day
11h 17m
Waning Crescent, 18% of the Moon is Illuminated
Feb 25
Waning Crescent
Mar 1
New
Mar 8
First Quarter
Mar 16
Full
Mar 23
Last Quarter

Hourly Weather History & Observations

Time (CST) Temp. Windchill Dew Point Humidity Pressure Visibility Wind Dir Wind Speed Gust Speed Precip Events Conditions
12:52 AM 44.1 °F 40.8 °F 30.9 °F 60% 30.15 in 10.0 mi NE 5.8 mph - N/A   Scattered Clouds
1:52 AM 43.0 °F 38.8 °F 30.9 °F 62% 30.16 in 10.0 mi NNE 6.9 mph - N/A   Clear
2:52 AM 41.0 °F 35.2 °F 30.9 °F 67% 30.18 in 10.0 mi North 9.2 mph - N/A   Clear
3:52 AM 37.9 °F 32.7 °F 30.0 °F 73% 30.17 in 10.0 mi North 6.9 mph - N/A   Clear
4:52 AM 37.9 °F 30.5 °F 26.1 °F 62% 30.16 in 10.0 mi NNE 11.5 mph - N/A   Clear
5:52 AM 37.0 °F 30.4 °F 26.1 °F 65% 30.18 in 10.0 mi North 9.2 mph - N/A   Clear
6:52 AM 32.0 °F 23.6 °F 25.0 °F 75% 30.20 in 10.0 mi North 10.4 mph - N/A   Clear
7:52 AM 30.9 °F 20.2 °F 23.0 °F 72% 30.21 in 10.0 mi North 15.0 mph - N/A   Partly Cloudy
8:52 AM 34.0 °F 23.8 °F 19.9 °F 56% 30.24 in 10.0 mi NNE 16.1 mph - N/A   Partly Cloudy
9:52 AM 39.0 °F 31.0 °F 18.0 °F 43% 30.24 in 10.0 mi NNE 13.8 mph - N/A   Mostly Cloudy
10:52 AM 39.9 °F 32.1 °F 17.1 °F 40% 30.23 in 10.0 mi NNE 13.8 mph - N/A   Overcast
11:52 AM 41.0 °F 33.1 °F 17.1 °F 38% 30.22 in 10.0 mi NNE 15.0 mph - N/A   Overcast
12:52 PM 41.0 °F 32.8 °F 17.1 °F 38% 30.21 in 10.0 mi NNE 16.1 mph 20.7 mph N/A   Overcast
1:52 PM 42.1 °F 34.9 °F 18.0 °F 38% 30.18 in 10.0 mi North 13.8 mph 18.4 mph N/A   Overcast
2:52 PM 43.0 °F 37.7 °F 18.0 °F 37% 30.17 in 10.0 mi NNE 9.2 mph - N/A   Overcast
3:52 PM 43.0 °F 35.7 °F 19.0 °F 38% 30.16 in 10.0 mi NNE 15.0 mph 20.7 mph N/A   Overcast
4:52 PM 44.1 °F 36.8 °F 19.0 °F 37% 30.15 in 10.0 mi NE 16.1 mph - N/A   Overcast
5:52 PM 43.0 °F 36.0 °F 19.0 °F 38% 30.15 in 10.0 mi NNE 13.8 mph 21.9 mph N/A   Overcast
6:52 PM 42.1 °F 34.2 °F 19.0 °F 40% 30.17 in 10.0 mi NNE 16.1 mph - N/A   Overcast
7:52 PM 39.9 °F 30.2 °F 18.0 °F 41% 30.21 in 10.0 mi NNE 20.7 mph - N/A   Overcast
8:52 PM 37.0 °F 27.4 °F 17.1 °F 44% 30.25 in 10.0 mi NNE 17.3 mph 27.6 mph N/A   Scattered Clouds
9:52 PM 35.1 °F 23.5 °F 18.0 °F 50% 30.28 in 10.0 mi North 21.9 mph 28.8 mph N/A   Overcast
10:52 PM 30.9 °F 16.4 °F 18.0 °F 59% 30.33 in 10.0 mi North 28.8 mph 35.7 mph N/A   Overcast
11:52 PM 28.9 °F 13.5 °F 16.0 °F 58% 30.36 in 10.0 mi North 29.9 mph 39.1 mph N/A   Overcast